Location: Coors Field
(39.7564°N, 104.9943°W)
Time: 11:23:21
(UTC-06:00)

ISS - Visible Passes

Search period start: 04 May 2016 00:00
Search period end: 14 May 2016 00:00
Orbit: 402 x 405 km, 51.6° (Epoch: 04 May)

Date Brightness Start Highest point End Pass type
(mag) Time Alt. Az. Time Alt. Az. Time Alt. Az.
07 May -1.1 04:57:19 10° S 04:59:40 19° SE 05:02:02 10° E visible
09 May -2.6 04:48:23 15° SSW 04:50:47 46° SE 04:53:55 10° ENE visible
10 May -1.6 03:57:55 22° SE 03:58:20 23° SE 04:00:58 10° ENE visible
11 May -3.2 04:40:00 21° WSW 04:41:59 69° NW 04:45:14 10° NE visible
12 May -3.2 03:49:22 58° SE 03:49:24 58° SE 03:52:37 10° ENE visible
13 May -0.8 02:58:40 17° E 02:58:40 17° E 02:59:44 10° ENE visible
13 May -2.0 04:31:17 17° W 04:33:16 32° NNW 04:36:15 10° NE visible
